Weather History for KHYS - November, 2011

Change the Weather History Date:

Thursday, November 17, 2011

  Actual Average Record
Temperature  
Mean Temperature 35 °F -  
Max Temperature 53 °F 52 °F 80 °F (1999)
Min Temperature 17 °F 28 °F 10 °F (2014)
Degree Days  
Heating Degree Days 30    
Moisture  
Dew Point 19 °F    
Average Humidity 62    
Maximum Humidity 93    
Minimum Humidity 28    
Precipitation  
Precipitation 0.00 in - - ()
Sea Level Pressure  
Sea Level Pressure 30.22 in    
Wind  
Wind Speed 10 mph (SW)    
Max Wind Speed 28 mph    
Max Gust Speed 36 mph    
Visibility 10 miles    
Events      
Averages and records for this station are not official NWS values.
T = Trace of Precipitation, MM = Missing Value Source: NWS Daily Summary

Daily Weather History Graph

Daily Weather History Graph

Search for Another Location

Airport or City:

Trip Planner

Search our weather history database for the weather conditions in past years. The results will help you decide how hot, cold, wet, or windy it might be!

Date:

Astronomy

Nov. 17, 2011 Rise Set
Actual Time 7:21 AM CST 5:22 PM CST
Civil Twilight 6:52 AM CST 5:50 PM CST
Nautical Twilight 6:20 AM CST 6:22 PM CST
Astronomical Twilight 5:49 AM CST 6:54 PM CST
Moon 11:43 PM CST (11/17) 12:32 PM CST (11/17)
Length of Visible Light 10h 57m
Length of Day
10h 00m
Waning Gibbous, 59% of the Moon is Illuminated
Nov 17
Waning Gibbous
Nov 18
Last Quarter
Nov 25
New
Dec 2
First Quarter
Dec 10
Full

Hourly Weather History & Observations

Time (CST) Temp. Windchill Dew Point Humidity Pressure Visibility Wind Dir Wind Speed Gust Speed Precip Events Conditions
12:15 AM 24.8 °F 17.9 °F 19.4 °F 80% 30.40 in 10.0 mi West 5.8 mph - N/A   Clear
12:35 AM 23.0 °F 14.7 °F 19.4 °F 86% 30.39 in 10.0 mi West 6.9 mph - N/A   Clear
12:55 AM 24.8 °F 17.9 °F 19.4 °F 80% 30.39 in 10.0 mi West 5.8 mph - N/A   Clear
1:15 AM 24.8 °F 19.1 °F 19.4 °F 80% 30.38 in 10.0 mi WNW 4.6 mph - N/A   Clear
1:35 AM 23.0 °F 18.4 °F 19.4 °F 86% 30.38 in 10.0 mi NW 3.5 mph - N/A   Clear
1:55 AM 21.2 °F 12.6 °F 17.6 °F 86% 30.37 in 10.0 mi West 6.9 mph - N/A   Clear
2:15 AM 21.2 °F 13.6 °F 15.8 °F 80% 30.37 in 10.0 mi WSW 5.8 mph - N/A   Clear
2:35 AM 21.2 °F 10.1 °F 17.6 °F 86% 30.37 in 10.0 mi WSW 10.4 mph - N/A   Clear
2:55 AM 19.4 °F 9.5 °F 15.8 °F 86% 30.36 in 10.0 mi WSW 8.1 mph - N/A   Clear
3:15 AM 19.4 °F 11.5 °F 15.8 °F 86% 30.36 in 10.0 mi West 5.8 mph - N/A   Clear
3:35 AM 19.4 °F 14.3 °F 15.8 °F 86% 30.35 in 10.0 mi West 3.5 mph - N/A   Clear
3:55 AM 19.4 °F 11.5 °F 15.8 °F 86% 30.34 in 10.0 mi West 5.8 mph - N/A   Clear
4:15 AM 17.6 °F 12.3 °F 12.2 °F 79% 30.34 in 10.0 mi West 3.5 mph - N/A   Clear
4:35 AM 17.6 °F - 14.0 °F 86% 30.32 in 10.0 mi Calm Calm - N/A   Clear
4:55 AM 17.6 °F 9.3 °F 15.8 °F 93% 30.32 in 10.0 mi WSW 5.8 mph - N/A   Clear
5:15 AM 19.4 °F 10.4 °F 15.8 °F 86% 30.32 in 10.0 mi SW 6.9 mph - N/A   Clear
5:35 AM 17.6 °F 9.3 °F 14.0 °F 86% 30.31 in 10.0 mi SW 5.8 mph - N/A   Clear
5:55 AM 17.6 °F 10.7 °F 14.0 °F 86% 30.31 in 10.0 mi SW 4.6 mph - N/A   Clear
6:15 AM 17.6 °F 9.3 °F 12.2 °F 79% 30.30 in 10.0 mi SSW 5.8 mph - N/A   Clear
6:35 AM 17.6 °F 9.3 °F 15.8 °F 93% 30.30 in 10.0 mi SW 5.8 mph - N/A   Clear
6:55 AM 19.4 °F 11.5 °F 15.8 °F 86% 30.30 in 10.0 mi WSW 5.8 mph - N/A   Clear
7:15 AM 19.4 °F - 15.8 °F 86% 30.31 in 10.0 mi Calm Calm - N/A   Clear
7:35 AM 19.4 °F 11.5 °F 14.0 °F 80% 30.30 in 10.0 mi SSW 5.8 mph - N/A   Clear
7:55 AM 21.2 °F 13.6 °F 17.6 °F 86% 30.30 in 10.0 mi SSW 5.8 mph - N/A   Clear
8:15 AM 24.8 °F 17.9 °F 19.4 °F 80% 30.29 in 10.0 mi SSW 5.8 mph - N/A   Clear
8:35 AM 24.8 °F 15.3 °F 21.2 °F 86% 30.29 in 10.0 mi SSW 9.2 mph - N/A   Clear
8:55 AM 26.6 °F 17.5 °F 23.0 °F 86% 30.28 in 10.0 mi SSW 9.2 mph - N/A   Clear
9:15 AM 30.2 °F 20.8 °F 24.8 °F 80% 30.27 in 10.0 mi SW 11.5 mph - N/A   Clear
9:35 AM 33.8 °F 25.3 °F 26.6 °F 75% 30.27 in 10.0 mi SW 11.5 mph - N/A   Clear
9:55 AM 35.6 °F 27.1 °F 26.6 °F 70% 30.27 in 10.0 mi SW 12.7 mph - N/A   Clear
10:15 AM 37.4 °F 28.2 °F 26.6 °F 65% 30.26 in 10.0 mi SW 16.1 mph 20.7 mph N/A   Clear
10:35 AM 39.2 °F 29.6 °F 26.6 °F 61% 30.24 in 10.0 mi SW 19.6 mph 24.2 mph N/A   Clear
10:55 AM 41.0 °F 32.2 °F 26.6 °F 57% 30.23 in 10.0 mi SSW 18.4 mph 26.5 mph N/A   Clear
11:15 AM 44.6 °F 36.6 °F 24.8 °F 46% 30.21 in 10.0 mi SSW 19.6 mph 25.3 mph N/A   Clear
11:35 AM 44.6 °F 36.4 °F 21.2 °F 39% 30.20 in 10.0 mi SSW 20.7 mph 33.4 mph N/A   Clear
11:55 AM 48.2 °F - 21.2 °F 34% 30.18 in 10.0 mi SW 24.2 mph 32.2 mph N/A   Clear
12:15 PM 48.2 °F - 19.4 °F 32% 30.16 in 10.0 mi SW 24.2 mph 31.1 mph N/A   Clear
12:35 PM 50.0 °F - 19.4 °F 30% 30.14 in 10.0 mi SSW 26.5 mph 34.5 mph N/A   Clear
12:55 PM 50.0 °F - 19.4 °F 30% 30.13 in 10.0 mi SSW 27.6 mph 35.7 mph N/A   Clear
1:15 PM 51.8 °F - 19.4 °F 28% 30.12 in 10.0 mi SW 24.2 mph 33.4 mph N/A   Clear
1:35 PM 51.8 °F - 19.4 °F 28% 30.09 in 10.0 mi SSW 25.3 mph 32.2 mph N/A   Clear
1:55 PM 51.8 °F - 19.4 °F 28% 30.08 in 10.0 mi SSW 27.6 mph 34.5 mph N/A   Clear
2:15 PM 51.8 °F - 21.2 °F 30% 30.07 in 10.0 mi SSW 21.9 mph 33.4 mph N/A   Clear
2:35 PM 53.6 °F - 21.2 °F 28% 30.06 in 10.0 mi SSW 23.0 mph 29.9 mph N/A   Clear
2:55 PM 51.8 °F - 21.2 °F 30% 30.05 in 10.0 mi SSW 21.9 mph 29.9 mph N/A   Clear
3:15 PM 51.8 °F - 21.2 °F 30% 30.04 in 10.0 mi SSW 25.3 mph 31.1 mph N/A   Clear
3:35 PM 53.6 °F - 21.2 °F 28% 30.02 in 10.0 mi SSW 25.3 mph 31.1 mph N/A   Clear
3:55 PM 51.8 °F - 21.2 °F 30% 30.02 in 10.0 mi SSW 23.0 mph 28.8 mph N/A   Clear
4:15 PM 51.8 °F - 21.2 °F 30% 30.01 in 10.0 mi SSW 21.9 mph 28.8 mph N/A   Clear
4:35 PM 51.8 °F - 23.0 °F 33% 30.00 in 10.0 mi SSW 19.6 mph - N/A   Clear
4:55 PM 50.0 °F - 23.0 °F 35% 30.00 in 10.0 mi SSW 13.8 mph - N/A   Clear
5:15 PM 48.2 °F - 21.2 °F 34% 29.99 in 10.0 mi South 12.7 mph - N/A   Clear
5:35 PM 46.4 °F 41.5 °F 21.2 °F 37% 29.98 in 10.0 mi South 10.4 mph - N/A   Clear
5:55 PM 44.6 °F 38.1 °F 21.2 °F 39% 29.98 in 10.0 mi South 13.8 mph - N/A   Clear
6:15 PM 44.6 °F 38.4 °F 21.2 °F 39% 29.97 in 10.0 mi South 12.7 mph - N/A   Clear
6:35 PM 42.8 °F 37.0 °F 21.2 °F 42% 29.97 in 10.0 mi SSE 10.4 mph - N/A   Clear
6:55 PM 42.8 °F 36.6 °F 21.2 °F 42% 29.97 in 10.0 mi SSE 11.5 mph - N/A   Clear
7:35 PM 39.2 °F 32.5 °F 21.2 °F 49% 29.96 in 10.0 mi SSE 10.4 mph - N/A   Clear
7:55 PM 39.2 °F 31.6 °F 23.0 °F 52% 29.96 in 10.0 mi South 12.7 mph - N/A   Clear
8:15 PM 41.0 °F 32.8 °F 23.0 °F 49% 29.95 in 10.0 mi South 16.1 mph - N/A   Clear
8:35 PM 41.0 °F 32.5 °F 23.0 °F 49% 29.94 in 10.0 mi South 17.3 mph - N/A   Clear
8:55 PM 41.0 °F 33.1 °F 21.2 °F 45% 29.93 in 10.0 mi South 15.0 mph - N/A   Clear
9:15 PM 39.2 °F 30.5 °F 21.2 °F 49% 29.93 in 10.0 mi South 16.1 mph 19.6 mph N/A   Clear
9:35 PM 39.2 °F 29.8 °F 23.0 °F 52% 29.92 in 10.0 mi South 18.4 mph - N/A   Clear
9:55 PM 39.2 °F 29.8 °F 23.0 °F 52% 29.91 in 10.0 mi South 18.4 mph 26.5 mph N/A   Clear
10:35 PM 39.2 °F 29.8 °F 23.0 °F 52% 29.89 in 10.0 mi South 18.4 mph 24.2 mph N/A   Clear
10:55 PM 39.2 °F 29.3 °F 23.0 °F 52% 29.88 in 10.0 mi South 20.7 mph - N/A   Clear
11:15 PM 39.2 °F 30.2 °F 23.0 °F 52% 29.87 in 10.0 mi South 17.3 mph 25.3 mph N/A   Clear
11:35 PM 39.2 °F 32.0 °F 23.0 °F 52% 29.87 in 10.0 mi South 11.5 mph - N/A   Clear
11:55 PM 39.2 °F 31.2 °F 24.8 °F 56% 29.87 in 10.0 mi South 13.8 mph - N/A   Clear